TURKSAT 4B (40984 NORAD) Tracking and Keplerian Element Data

This shows tracking and keplerian element data for the satellite.

Feedback or suggestion? Click here.




ElementValue
Catalog40984
NameTURKSAT 4B
Epoch Orbit3168
Epoch Day159.9686814
Epoch Year2024
RAAN66.6417
Inclination0.0273
Eccentricity0.0002612
Argument of Perigee17.3645
Mean Anonmoly211.5594
Mean Motion1.00275488
Decay Rate1.14E-06
L11 40984U 15060A 24159.96868140 .00000114 00000+0 00000+0 0 9994
L22 40984 0.0273 66.6417 0002612 17.3645 211.5594 1.00275488 31686



Live tracking and technical data element details for TURKSAT 4B (NORAD 40984). TURKSAT 4B can be tracked NOW for your location showing map with azimuth and elevation plus other details from your city location.







IsCatalogInMostPopularTable: catalog: 40984, numindb: 617
Update: records affected: 1



GetName: 40984 TURKSAT 4B

Hit Count: updated at: Mon, 17 Jun 2024 23:43:28 GMT